• In France
  • List of Countries
  • For 7 days
  • Water Temperature
  • Satellite Maps
  • Weather Map
  • Weather Widgets
  • user-avatar
    Login

    Hourly Weather Abovyan

    Today, 23 September, Saturday

    Time Temperature Precipitation Wind Pressure Humidity
    00:00 +20°C° 0.2 mm 2 mps 672 mmHg 64%
    01:00 +20°C° 0.1 mm 2 mps 672 mmHg 65%
    02:00 +19°C° 0.1 mm 2 mps 672 mmHg 67%
    03:00 +20°C° 0 mm 3 mps 671 mmHg 63%
    04:00 +19°C° 0 mm 2 mps 671 mmHg 64%
    05:00 +19°C° 0 mm 2 mps 671 mmHg 65%
    06:00 +18°C° 0 mm 2 mps 671 mmHg 67%
    07:00 +21°C° 0 mm 2 mps 672 mmHg 58%
    08:00 +24°C° 0 mm 2 mps 672 mmHg 48%
    09:00 +26°C° 0 mm 2 mps 672 mmHg 39%
    10:00 +28°C° 0 mm 2 mps 673 mmHg 35%
    11:00 +29°C° 0 mm 2 mps 673 mmHg 31%
    12:00 +30°C° 0 mm 3 mps 673 mmHg 26%
    13:00 +30°C° 0.1 mm 3 mps 672 mmHg 26%
    14:00 +30°C° 0.1 mm 3 mps 672 mmHg 25%
    15:00 +30°C° 0.1 mm 3 mps 672 mmHg 24%
    16:00 +28°C° 0.3 mm 2 mps 672 mmHg 30%
    17:00 +26°C° 0.3 mm 2 mps 672 mmHg 36%
    18:00 +24°C° 0.3 mm 1 mps 671 mmHg 42%
    19:00 +23°C° 0.2 mm 2 mps 672 mmHg 47%
    20:00 +21°C° 0.2 mm 2 mps 672 mmHg 53%
    21:00 +21°C° 0.2 mm 2 mps 672 mmHg 58%
    22:00 +20°C° 0 mm 2 mps 673 mmHg 61%
    23:00 +20°C° 0 mm 2 mps 673 mmHg 64%

    Tomorrow, 24 September, Sunday

    Time Temperature Precipitation Wind Pressure Humidity
    00:00 +19°C° 0 mm 2 mps 673 mmHg 68%
    01:00 +19°C° 0.1 mm 2 mps 673 mmHg 70%
    02:00 +18°C° 0.1 mm 2 mps 673 mmHg 72%
    03:00 +18°C° 0.1 mm 2 mps 673 mmHg 74%
    04:00 +17°C° 0 mm 2 mps 673 mmHg 75%
    05:00 +17°C° 0 mm 2 mps 673 mmHg 76%
    06:00 +17°C° 0 mm 2 mps 673 mmHg 77%
    07:00 +19°C° 0.1 mm 2 mps 674 mmHg 68%
    08:00 +21°C° 0.1 mm 2 mps 674 mmHg 58%
    09:00 +24°C° 0.1 mm 2 mps 675 mmHg 49%
    10:00 +25°C° 0.2 mm 2 mps 675 mmHg 44%
    11:00 +26°C° 0.2 mm 2 mps 674 mmHg 39%
    12:00 +28°C° 0.2 mm 2 mps 674 mmHg 34%
    13:00 +28°C° 0.2 mm 2 mps 674 mmHg 33%
    14:00 +28°C° 0.2 mm 2 mps 674 mmHg 32%
    15:00 +28°C° 0.2 mm 2 mps 674 mmHg 30%
    16:00 +27°C° 0.4 mm 2 mps 674 mmHg 36%
    17:00 +25°C° 0.4 mm 2 mps 673 mmHg 42%
    18:00 +23°C° 0.4 mm 1 mps 673 mmHg 48%
    19:00 +21°C° 0.2 mm 2 mps 673 mmHg 53%
    20:00 +20°C° 0.2 mm 2 mps 674 mmHg 57%
    21:00 +19°C° 0.2 mm 2 mps 674 mmHg 62%
    22:00 +19°C° 0 mm 2 mps 674 mmHg 63%
    23:00 +18°C° 0 mm 2 mps 674 mmHg 65%

    Day after tomorrow, 25 September, Monday

    Time Temperature Precipitation Wind Pressure Humidity
    00:00 +18°C° 0 mm 2 mps 674 mmHg 66%
    01:00 +17°C° 0 mm 2 mps 674 mmHg 67%
    02:00 +17°C° 0 mm 2 mps 674 mmHg 69%
    03:00 +16°C° 0 mm 2 mps 674 mmHg 70%
    04:00 +16°C° 0 mm 2 mps 674 mmHg 72%
    05:00 +16°C° 0 mm 2 mps 674 mmHg 74%
    06:00 +15°C° 0 mm 2 mps 674 mmHg 76%
    07:00 +18°C° 0 mm 1 mps 674 mmHg 67%
    08:00 +21°C° 0 mm 1 mps 675 mmHg 58%
    09:00 +23°C° 0 mm 1 mps 675 mmHg 49%
    10:00 +24°C° 0.1 mm 1 mps 675 mmHg 44%
    11:00 +25°C° 0.1 mm 2 mps 675 mmHg 39%
    12:00 +27°C° 0.1 mm 2 mps 675 mmHg 34%
    13:00 +27°C° 0.1 mm 2 mps 674 mmHg 33%
    14:00 +27°C° 0.1 mm 2 mps 674 mmHg 31%
    15:00 +27°C° 0.1 mm 2 mps 674 mmHg 29%
    16:00 +25°C° 0.1 mm 2 mps 674 mmHg 34%
    17:00 +23°C° 0.1 mm 2 mps 673 mmHg 39%
    18:00 +21°C° 0.1 mm 1 mps 673 mmHg 44%
    19:00 +20°C° 0.1 mm 2 mps 673 mmHg 50%
    20:00 +19°C° 0.1 mm 2 mps 674 mmHg 55%
    21:00 +18°C° 0.1 mm 2 mps 674 mmHg 60%
    22:00 +18°C° 0 mm 2 mps 674 mmHg 63%
    23:00 +17°C° 0 mm 2 mps 674 mmHg 65%

    26 September, Tuesday

    Time Temperature Precipitation Wind Pressure Humidity
    00:00 +17°C° 0 mm 2 mps 674 mmHg 67%
    01:00 +17°C° 0 mm 2 mps 674 mmHg 69%
    02:00 +16°C° 0 mm 2 mps 673 mmHg 70%
    03:00 +16°C° 0 mm 2 mps 673 mmHg 71%
    04:00 +15°C° 0 mm 2 mps 673 mmHg 72%
    05:00 +15°C° 0 mm 1 mps 673 mmHg 74%
    06:00 +15°C° 0 mm 1 mps 673 mmHg 75%
    07:00 +18°C° 0 mm 1 mps 674 mmHg 65%
    08:00 +20°C° 0 mm 1 mps 674 mmHg 55%
    09:00 +23°C° 0 mm 1 mps 675 mmHg 45%
    10:00 +24°C° 0 mm 2 mps 675 mmHg 39%
    11:00 +25°C° 0 mm 2 mps 675 mmHg 34%
    12:00 +27°C° 0 mm 2 mps 674 mmHg 29%
    13:00 +27°C° 0 mm 2 mps 674 mmHg 27%
    14:00 +27°C° 0 mm 2 mps 674 mmHg 26%
    15:00 +28°C° 0 mm 2 mps 673 mmHg 25%
    16:00 +26°C° 0 mm 2 mps 673 mmHg 30%
    17:00 +24°C° 0 mm 2 mps 673 mmHg 35%
    18:00 +22°C° 0 mm 1 mps 673 mmHg 40%
    19:00 +20°C° 0 mm 2 mps 673 mmHg 46%
    20:00 +19°C° 0 mm 2 mps 673 mmHg 52%
    21:00 +19°C° 0 mm 2 mps 673 mmHg 59%
    22:00 +18°C° 0 mm 2 mps 673 mmHg 62%
    23:00 +18°C° 0 mm 2 mps 673 mmHg 65%

    27 September, Wednesday

    Time Temperature Precipitation Wind Pressure Humidity
    00:00 +18°C° 0 mm 2 mps 673 mmHg 69%
    01:00 +17°C° 0 mm 2 mps 673 mmHg 70%
    02:00 +17°C° 0 mm 2 mps 673 mmHg 71%
    03:00 +16°C° 0 mm 2 mps 672 mmHg 72%
    04:00 +16°C° 0.1 mm 2 mps 672 mmHg 72%
    05:00 +16°C° 0.1 mm 1 mps 672 mmHg 73%
    06:00 +15°C° 0.1 mm 1 mps 672 mmHg 73%
    07:00 +19°C° 0.1 mm 1 mps 672 mmHg 62%
    08:00 +20°C° 0.1 mm 2 mps 673 mmHg 52%
    09:00 +24°C° 0.1 mm 2 mps 673 mmHg 41%
    10:00 +25°C° 0 mm 3 mps 673 mmHg 38%
    11:00 +26°C° 0 mm 3 mps 673 mmHg 34%
    12:00 +28°C° 0 mm 3 mps 673 mmHg 30%
    13:00 +28°C° 0.1 mm 3 mps 672 mmHg 30%
    14:00 +28°C° 0.1 mm 4 mps 672 mmHg 29%
    15:00 +28°C° 0.1 mm 4 mps 671 mmHg 28%
    16:00 +27°C° 0.1 mm 3 mps 671 mmHg 33%
    17:00 +25°C° 0.1 mm 3 mps 671 mmHg 38%
    18:00 +22°C° 0.1 mm 3 mps 671 mmHg 44%
    19:00 +21°C° 0.1 mm 3 mps 672 mmHg 50%
    20:00 +20°C° 0.1 mm 3 mps 672 mmHg 56%
    21:00 +19°C° 0.1 mm 3 mps 672 mmHg 62%
    22:00 +19°C° 0 mm 3 mps 672 mmHg 65%
    23:00 +18°C° 0 mm 3 mps 672 mmHg 68%

    28 September, Thursday

    Time Temperature Precipitation Wind Pressure Humidity
    00:00 +18°C° 0 mm 3 mps 672 mmHg 71%
    01:00 +17°C° 0 mm 3 mps 672 mmHg 73%
    02:00 +16°C° 0 mm 2 mps 672 mmHg 75%
    03:00 +16°C° 0 mm 2 mps 672 mmHg 76%
    04:00 +16°C° 0 mm 2 mps 672 mmHg 77%
    05:00 +15°C° 0 mm 2 mps 672 mmHg 77%
    06:00 +15°C° 0 mm 2 mps 672 mmHg 78%
    07:00 +17°C° 0 mm 2 mps 673 mmHg 69%
    08:00 +19°C° 0 mm 2 mps 673 mmHg 59%
    09:00 +22°C° 0 mm 1 mps 674 mmHg 50%
    10:00 +23°C° 0 mm 2 mps 674 mmHg 45%
    11:00 +24°C° 0 mm 2 mps 674 mmHg 41%
    12:00 +25°C° 0 mm 2 mps 674 mmHg 36%
    13:00 +25°C° 0.1 mm 2 mps 674 mmHg 35%
    14:00 +26°C° 0.1 mm 2 mps 673 mmHg 35%
    15:00 +26°C° 0.1 mm 2 mps 673 mmHg 34%
    16:00 +24°C° 0.2 mm 2 mps 673 mmHg 41%
    17:00 +22°C° 0.2 mm 3 mps 673 mmHg 47%
    18:00 +20°C° 0.2 mm 3 mps 673 mmHg 54%
    19:00 +19°C° 0.1 mm 3 mps 673 mmHg 58%
    20:00 +18°C° 0.1 mm 3 mps 673 mmHg 63%
    21:00 +18°C° 0.1 mm 3 mps 674 mmHg 68%
    22:00 +17°C° 0.1 mm 3 mps 674 mmHg 69%
    23:00 +17°C° 0.1 mm 3 mps 674 mmHg 70%
    Show more